Temp
9 9 9 9 9 9 9 9 9 9 9 9 9 9 9 10 10 10 10 10 10 10 10 10 9 11 14 15 15 14 15 16 16 14 15 23 26 26 26 26 26 23 23 24 24 24 23 22 22 23 24 24 25 25 25 24 24 24 24 23 23 24 24 25 25 23 23 23 23 23 24 24 24 24 24 24 25 25 25 25 25 25 25 24 24 24 23 23
9 9 9 9 9 9 9 9 9 9 9 9 9 9 9 9 9 10 10 10 10 10 10 10 9 11 13 14 14 13 14 14 13 13 19 27 27 25 26 26 25 24 23 24 24 24 23 23 23 23 24 24 25 25 25 24 24 24 24 23 24 25 26 26 25 23 23 23 23 23 24 24 24 24 24 25 25 24 24 24 24 24 24 24 24 24 24 23
9 9 9 9 9 9 9 9 9 9 9 9 9 9 9 9 9 9 10 10 9 9 10 10 10 10 13 13 12 13 13 12 15 19 25 28 27 26 26 25 25 24 24 25 25 24 24 24 23 24 24 24 25 25 25 24 24 24 24 24 25 27 26 26 25 23 24 23 23 24 24 24 24 24 24 25 24 24 24 24 24 23 23 23 23 24 24 23
9 9 9 9 9 9 9 9 9 9 10 10 9 9 9 9 9 9 10 9 9 9 9 10 10 10 13 13 12 14 12 14 22 26 27 27 27 27 26 25 25 25 25 25 25 24 24 25 24 25 25 24 25 25 25 24 24 25 25 25 26 27 26 25 25 24 24 24 24 24 24 24 24 24 25 25 24 24 24 24 24 23 23 23 23 24 24 24
9 9 9 9 9 9 9 10 10 10 10 10 10 10 10 9 9 10 10 10 10 10 9 10 10 11 13 13 13 13 15 21 26 27 27 27 28 27 26 26 25 25 25 25 25 24 24 25 25 25 25 24 25 25 25 24 25 25 25 26 27 27 26 25 25 24 24 24 24 24 24 24 24 25 25 25 25 24 25 25 25 24 24 24 24 24 24 24
9 9 9 9 9 9 10 10 11 12 12 10 10 11 11 10 9 9 11 12 12 12 10 9 10 11 13 14 13 13 18 24 25 26 28 27 28 28 26 26 25 25 25 25 25 25 24 25 25 25 25 25 25 26 26 25 25 26 26 27 27 27 26 25 25 25 24 24 24 24 24 24 24 24 24 25 26 26 26 26 25 25 25 24 24 24 24 24
9 9 9 9 9 9 9 10 11 13 13 11 11 11 13 12 11 10 11 13 13 12 11 9 10 11 13 14 14 14 18 23 25 27 28 28 28 28 26 26 25 25 25 24 24 25 25 24 24 25 25 25 26 26 27 26 25 26 27 28 28 27 26 26 26 25 25 25 25 24 24 24 24 24 24 25 25 26 26 26 25 25 25 25 24 24 24 24
9 9 9 9 9 9 9 9 11 13 13 13 13 13 14 13 12 12 13 13 12 12 11 10 10 11 13 14 15 18 19 23 27 27 27 28 28 27 26 25 25 25 24 24 24 24 25 24 25 25 25 25 26 27 28 27 26 26 27 28 28 27 26 26 26 25 25 25 24 24 24 24 24 24 24 24 23 25 26 25 25 25 25 25 24 24 24 24
9 9 9 9 9 9 9 9 11 13 13 14 15 15 15 14 14 14 14 14 13 13 12 10 10 11 13 13 16 21 24 26 28 27 27 28 28 27 26 25 24 24 24 24 24 24 25 25 25 26 25 26 26 27 28 28 26 26 27 29 28 27 27 26 26 26 26 25 24 24 23 23 23 24 24 23 23 24 25 25 25 25 25 25 24 24 24 24
10 9 9 9 9 10 11 11 12 13 13 15 16 16 16 16 15 15 15 15 14 13 13 11 10 12 12 13 17 22 26 26 26 27 27 27 27 26 25 25 25 24 24 23 23 24 25 26 26 27 26 26 27 28 29 28 28 28 28 29 28 27 27 26 26 26 25 24 24 23 23 23 23 25 24 23 23 24 25 25 25 25 25 25 25 24 24 24
11 10 10 10 9 11 13 14 14 14 14 16 17 16 17 17 16 16 16 15 15 14 14 12 10 12 12 14 19 23 26 26 26 26 26 27 27 26 26 26 25 25 24 23 23 24 25 26 27 27 27 27 28 29 29 29 30 28 28 27 26 26 26 26 26 25 25 24 23 24 23 23 24 24 25 23 23 24 25 25 25 25 25 25 25 24 24 24
14 13 12 11 11 12 15 16 15 15 16 17 17 17 17 17 17 17 16 16 15 14 14 12 11 12 12 14 19 23 26 25 25 25 25 26 26 26 26 26 26 25 25 24 23 24 25 26 27 26 27 27 27 29 29 30 30 28 28 26 25 26 25 25 26 26 25 23 23 25 24 23 24 24 24 23 23 24 25 25 25 25 25 25 25 25 25 25
16 15 14 14 13 14 16 17 16 16 17 18 18 18 18 18 17 17 16 16 15 14 13 13 12 12 14 18 22 24 26 25 25 24 24 25 25 26 25 25 26 25 25 25 25 25 25 26 26 26 27 27 27 28 30 31 30 28 28 26 25 25 24 25 25 26 26 23 23 25 23 22 23 23 23 23 23 24 25 25 25 25 25 25 25 25 25 25
18 17 17 16 16 16 16 17 17 18 18 19 19 19 18 18 18 17 16 16 15 14 13 14 13 13 15 20 24 25 25 25 24 24 24 24 24 24 24 24 25 24 25 25 25 26 26 26 26 26 26 27 27 28 29 30 29 28 27 26 25 23 23 25 24 25 25 23 23 25 23 22 23 23 23 23 23 24 25 25 25 25 25 25 25 25 25 25
18 18 18 18 18 17 18 18 18 19 19 20 19 19 19 18 18 17 17 17 16 15 14 13 13 14 16 20 23 25 25 24 25 26 26 25 24 24 24 24 24 24 24 24 25 26 27 27 26 26 27 27 27 27 28 29 28 28 25 23 24 23 23 25 24 25 26 24 24 25 23 22 23 23 23 23 23 24 25 25 26 26 26 25 25 25 25 25
18 19 19 19 19 18 18 18 19 19 20 20 20 20 20 19 18 17 17 17 16 15 14 14 13 14 18 22 24 25 25 24 26 27 27 26 25 24 24 24 24 24 24 24 25 26 27 27 27 26 27 27 27 28 28 26 25 27 25 22 23 24 23 24 25 25 26 25 24 25 24 22 23 23 23 23 23 24 25 25 25 26 26 26 26 26 26 26
18 18 19 19 19 19 19 19 20 20 20 21 20 21 20 19 18 17 17 16 16 15 14 14 14 14 19 23 25 25 25 26 27 27 27 27 26 26 25 23 24 24 24 24 25 26 26 27 27 27 27 27 28 29 26 22 22 24 25 23 23 24 23 23 25 26 26 25 24 25 24 23 23 23 22 23 23 23 24 24 25 25 26 26 26 26 26 26
18 18 19 19 20 20 20 20 20 21 21 20 20 21 20 18 17 17 16 15 15 14 15 15 14 16 21 24 24 24 25 26 26 27 27 27 26 26 25 24 24 25 24 25 26 26 26 27 27 27 27 27 28 28 24 22 23 23 23 23 23 24 23 23 25 26 26 25 25 24 24 23 23 23 22 23 23 23 24 24 25 25 25 26 26 26 27 26
18 19 19 19 20 20 20 20 21 21 21 21 20 20 19 18 17 16 15 14 15 18 19 18 17 21 23 23 24 24 25 26 26 26 27 26 25 25 26 26 26 25 25 25 26 26 26 26 26 25 26 27 28 28 26 26 26 26 26 24 23 23 23 25 26 26 26 25 25 24 24 23 23 23 23 22 23 23 23 24 24 24 25 26 26 26 27 27
19 19 19 20 20 20 20 21 21 21 22 21 20 19 19 19 19 18 16 15 17 20 22 22 20 22 23 23 23 24 25 26 25 27 27 27 26 26 26 26 26 26 26 26 26 26 26 26 25 25 26 27 27 27 28 28 28 28 28 25 24 24 24 26 26 26 27 25 24 25 24 24 24 23 23 22 23 23 23 23 24 24 25 26 26 27 27 27
19 19 20 20 20 20 21 21 21 22 22 21 20 20 21 21 21 21 20 19 19 18 20 22 21 21 23 23 23 24 25 25 26 27 27 28 27 26 26 26 26 25 26 26 26 27 26 25 25 26 27 27 27 27 28 28 28 28 27 25 24 24 24 26 26 26 27 26 24 24 24 24 24 24 23 22 23 23 23 23 24 24 25 25 26 27 27 27
19 19 20 20 21 21 21 21 22 22 22 21 20 19 20 21 22 23 22 21 21 20 20 21 21 21 22 23 23 24 23 24 25 27 28 28 26 26 26 26 25 25 26 26 26 26 25 25 25 27 26 26 27 27 27 28 28 28 27 26 24 24 25 25 26 27 27 26 24 24 24 24 24 24 23 23 23 23 23 24 24 24 25 25 26 26 27 27
19 19 20 20 21 21 21 21 22 22 21 20 19 18 21 23 23 22 22 22 22 22 22 22 22 22 22 23 24 24 24 24 25 27 28 27 26 26 26 26 26 26 25 25 25 24 23 25 27 27 26 26 27 27 27 27 28 28 27 25 23 25 25 23 25 27 27 26 24 24 24 23 24 23 23 23 23 23 23 23 24 24 25 25 26 26 26 27
19 19 20 20 21 21 21 22 22 21 21 20 19 21 23 24 23 23 22 22 21 22 23 23 24 24 24 26 26 25 25 25 26 27 28 27 26 26 26 26 26 26 25 25 26 24 24 26 27 27 27 27 27 27 27 27 26 27 27 26 24 25 25 24 25 26 26 25 25 24 22 22 23 23 23 23 22 23 23 23 23 23 24 25 25 25 26 27
19 19 20 21 21 21 22 22 21 21 21 21 22 24 23 23 23 23 23 21 21 23 24 24 24 25 26 27 26 26 27 27 27 27 28 28 27 26 26 27 26 25 25 25 25 25 26 27 27 27 27 26 27 27 27 27 25 25 28 28 27 26 26 26 26 25 23 22 24 25 21 21 23 23 23 22 22 23 23 22 23 23 24 24 25 25 26 26
19 20 20 21 21 22 22 22 21 21 21 22 24 24 23 23 23 23 22 20 21 24 25 25 24 25 27 26 26 27 26 26 28 27 28 28 28 28 26 26 26 26 26 26 26 25 26 27 27 27 27 26 26 26 27 28 25 23 27 30 29 28 27 26 25 24 21 21 25 26 22 21 22 23 23 22 22 23 23 23 23 23 24 24 25 25 25 26
20 20 20 21 21 21 22 22 21 21 22 24 24 23 24 23 23 23 22 20 21 23 24 24 25 26 26 26 27 27 25 26 28 28 28 28 28 28 27 26 26 26 27 26 24 25 27 28 27 27 27 26 26 25 27 28 25 24 29 30 28 28 26 26 25 24 23 23 24 25 24 21 21 22 23 23 22 23 23 23 23 23 24 24 25 25 25 26
20 20 21 21 21 20 20 20 19 20 22 24 23 23 24 23 23 23 21 20 21 24 24 25 25 26 26 26 27 26 25 26 27 27 28 28 28 28 26 26 26 26 28 26 23 24 27 27 27 27 26 26 25 26 27 28 27 27 30 30 28 28 27 27 26 24 24 24 22 23 24 22 21 22 23 23 23 23 23 23 24 23 24 25 25 25 25 25
20 21 21 21 21 21 20 18 18 20 23 23 23 24 24 23 23 23 21 20 22 24 25 25 26 26 26 26 26 26 26 27 27 27 28 27 28 28 26 26 27 26 27 26 24 26 28 28 28 27 26 26 27 27 28 28 28 29 30 30 29 29 28 27 26 24 24 23 21 22 23 22 21 21 22 23 22 23 24 24 24 24 24 25 25 25 25 25
21 21 21 21 21 21 19 19 21 23 23 23 23 24 23 23 23 21 20 21 22 24 25 25 25 26 25 26 26 26 26 26 27 27 27 27 27 27 27 27 27 27 27 26 26 26 27 28 28 28 28 28 28 28 28 29 29 30 30 29 28 28 27 26 24 23 22 21 21 22 23 22 21 21 22 23 24 24 25 24 24 24 24 25 25 25 25 25
21 21 21 21 21 20 19 20 23 24 23 24 24 24 23 23 22 20 20 22 23 23 25 25 25 26 25 25 25 26 26 26 27 27 26 27 26 27 27 26 26 26 25 25 25 26 26 27 28 29 29 29 29 28 28 29 29 30 30 28 25 24 24 22 21 22 21 21 22 23 24 23 21 22 23 24 25 26 25 25 24 24 24 25 26 25 25 25
21 21 21 22 22 21 21 23 24 24 24 24 23 23 23 22 21 20 21 23 22 23 24 25 25 25 26 25 26 26 26 26 27 26 26 26 26 26 26 26 25 24 22 23 24 25 26 28 29 30 30 30 29 28 28 28 29 30 29 25 22 21 21 21 20 21 21 21 23 24 24 22 22 24 25 25 26 26 26 26 25 25 24 24 25 26 25 25
22 22 22 22 23 23 23 24 24 24 24 24 23 23 23 21 20 20 21 22 22 23 25 25 24 24 25 25 25 26 26 26 27 26 26 26 25 25 26 26 26 24 23 22 23 23 25 27 29 29 30 30 29 27 26 26 27 28 26 23 22 21 21 20 20 20 21 22 23 24 24 22 22 25 26 25 26 26 26 27 26 25 25 25 25 26 25 24
22 22 23 23 24 24 25 25 24 24 24 23 23 23 22 20 20 21 22 22 23 25 25 24 24 24 25 24 24 25 25 25 26 26 25 25 24 24 25 25 25 25 25 24 23 22 22 24 27 29 29 29 30 29 28 28 28 28 29 26 23 22 21 21 20 20 21 22 22 24 23 21 22 24 24 25 26 27 27 27 27 26 25 25 25 25 25 24
22 23 23 23 24 25 26 25 25 24 23 23 23 23 21 20 21 21 22 23 24 24 24 24 24 23 23 23 24 25 25 24 25 24 24 24 23 23 24 25 25 25 25 23 23 23 21 22 27 29 28 29 30 30 30 30 28 27 29 27 24 24 23 21 21 22 22 21 22 22 22 22 23 25 25 25 26 26 27 26 26 26 25 25 25 25 24 23
23 24 24 25 25 26 26 25 24 24 23 23 23 21 21 21 22 22 23 24 24 24 24 23 23 22 22 23 24 25 25 25 25 24 23 23 23 24 24 25 25 25 25 23 23 23 21 23 28 29 29 30 30 30 31 30 28 26 26 25 26 28 27 23 21 22 22 21 21 21 21 22 24 25 25 26 26 26 26 26 25 25 25 25 24 23 22 21
23 24 23 25 26 26 26 25 24 24 24 23 22 21 22 23 23 24 24 25 24 24 24 22 22 22 21 22 22 24 25 24 24 24 22 22 23 24 24 25 25 25 24 24 24 24 22 23 27 29 29 30 30 30 31 31 30 27 25 27 28 28 28 25 22 21 21 21 21 21 21 21 22 23 24 25 25 25 25 25 24 24 24 24 22 21 21 21
21 22 23 25 26 26 26 25 24 24 23 22 21 21 22 23 24 24 25 25 24 24 23 21 22 22 21 21 22 23 24 23 23 23 22 22 23 24 24 24 25 25 24 24 24 25 23 22 26 28 28 29 30 30 29 29 31 30 28 29 28 24 24 24 22 21 21 21 21 21 21 21 21 22 23 23 23 23 24 24 24 23 23 22 21 21 21 22
20 22 24 26 26 27 26 24 24 24 23 22 21 22 23 24 25 25 25 25 24 24 23 22 22 22 22 22 22 23 24 23 23 22 22 22 23 24 25 24 25 25 24 25 25 24 24 22 23 27 28 28 29 28 26 26 29 30 30 30 28 25 24 23 23 22 21 21 21 21 21 21 21 22 22 22 22 22 22 22 22 22 21 21 21 21 21 22
19 23 25 25 26 26 25 24 24 23 23 22 22 22 23 24 25 25 25 25 25 24 24 23 23 22 22 23 22 23 23 23 23 23 22 22 23 24 25 24 24 25 24 25 24 24 25 23 22 26 28 26 26 27 26 27 28 28 27 26 26 26 25 25 24 22 21 21 21 21 21 21 21 21 22 22 22 22 22 21 21 21 21 21 21 21 21 21
19 23 25 25 25 25 25 24 24 23 23 22 22 23 24 24 25 25 25 25 25 25 24 24 23 23 23 23 22 23 23 23 23 23 23 23 23 23 24 24 24 24 24 25 25 24 24 24 22 23 25 24 25 27 27 28 29 29 27 26 26 25 24 23 22 22 22 21 21 21 21 21 21 21 22 22 22 22 22 21 21 20 20 20 20 20 21 21
20 24 25 24 24 24 24 24 23 22 23 23 23 24 25 25 25 24 25 25 25 25 25 24 24 23 23 23 23 23 23 22 22 23 23 23 24 24 24 24 24 24 24 24 24 24 24 23 22 22 23 24 26 27 26 27 29 30 28 27 27 26 24 22 22 22 22 21 21 21 21 21 22 22 22 22 22 22 21 21 20 20 20 20 20 21 21 21
21 23 24 25 24 24 24 23 23 22 23 24 24 24 25 24 24 24 24 24 24 24 24 24 24 24 23 23 23 23 22 22 22 23 23 23 24 24 24 23 24 24 25 24 24 24 24 23 22 22 24 25 27 27 27 28 28 28 27 27 27 27 26 24 23 23 22 21 21 21 21 21 22 22 22 22 22 21 21 21 20 20 20 20 20 20 20 20
19 19 22 24 25 26 24 23 23 23 23 24 24 24 25 24 24 24 24 24 24 23 24 24 24 24 23 23 23 22 22 22 22 22 23 23 24 24 24 23 23 24 24 24 24 24 23 22 21 21 22 23 24 25 26 27 27 26 26 26 27 27 27 25 24 23 22 21 21 21 21 21 21 22 22 21 21 21 20 20 20 20 20 20 20 20 20 20
19 20 21 23 24 25 25 23 24 24 23 24 24 24 24 24 24 23 23 23 23 23 23 23 23 23 23 23 23 22 22 22 22 22 22 22 23 24 24 23 23 23 23 24 24 24 24 22 22 21 21 21 21 22 22 23 24 25 25 26 26 26 26 25 23 22 22 21 21 21 20 20 21 21 21 21 21 20 20 20 20 20 20 20 20 20 19 19
21 22 22 23 23 24 25 23 23 24 24 24 24 23 23 24 24 24 24 23 23 23 22 22 23 24 23 23 23 22 22 22 22 22 22 22 23 24 24 23 23 23 24 24 23 24 24 23 22 21 21 21 21 22 23 23 23 23 24 25 26 26 26 25 23 22 22 21 21 21 21 20 21 21 21 21 20 20 20 20 19 19 19 19 20 19 19 19
21 21 21 22 22 24 24 23 23 24 23 23 23 23 22 22 23 24 24 23 23 23 22 22 22 22 22 22 22 22 21 22 22 22 21 22 22 23 23 24 23 23 24 24 23 24 23 22 21 22 22 22 22 23 24 24 23 22 23 24 25 26 26 25 23 23 23 22 21 21 21 20 20 21 21 20 20 19 19 19 19 19 19 19 19 19 19 18
20 20 20 20 21 23 23 23 23 23 23 23 23 23 22 22 22 22 23 23 23 23 22 22 21 21 21 22 21 21 21 21 21 21 21 21 22 23 23 24 24 23 23 24 23 23 22 21 21 22 22 23 23 23 24 24 23 23 23 23 24 25 25 25 23 23 24 23 22 21 21 21 21 21 21 20 20 20 19 19 19 19 19 19 19 19 19 18
19 20 19 19 20 21 21 21 22 23 24 24 23 23 22 22 22 22 22 23 23 22 22 21 20 20 21 21 21 21 20 21 21 21 21 21 21 22 22 23 24 23 23 23 23 22 22 21 20 21 22 23 23 23 24 24 23 23 23 23 24 24 24 24 23 23 23 23 22 21 21 21 21 21 21 21 20 20 19 19 19 19 19 19 19 19 19 18
18 18 18 18 19 20 20 21 23 24 23 22 22 23 22 22 22 22 22 22 22 22 21 21 20 20 21 21 21 21 20 21 21 21 21 21 21 22 22 22 23 23 23 23 22 22 22 21 20 21 22 22 22 23 24 23 23 23 22 23 23 23 24 23 23 23 22 21 21 21 21 21 21 21 21 21 20 20 19 19 19 19 19 19 19 19 19 19
16 17 17 18 19 20 20 21 22 23 23 23 22 23 22 22 22 22 22 22 21 22 22 21 21 21 21 21 21 21 21 21 21 21 22 22 22 22 22 22 22 23 22 22 22 22 21 20 20 21 21 21 21 22 23 23 23 23 22 22 22 22 23 23 23 23 22 21 21 21 21 21 21 21 21 20 20 19 19 19 19 19 19 19 19 19 19 19
16 17 16 17 20 20 19 20 21 22 23 23 22 22 22 22 22 22 22 22 21 21 21 21 22 22 21 21 21 22 21 21 22 22 22 22 22 22 22 22 22 22 22 22 21 20 20 21 20 20 21 21 20 21 22 23 22 22 22 22 21 21 23 23 23 23 22 22 21 21 22 21 20 21 21 20 20 19 19 19 19 19 19 19 19 19 19 19
Height
802 801 799 798 797 796 795 794 792 791 790 789 788 787 787 786 786 785 785 784 783 781 780 779 778 777 776 775 775 774 772 771 770 770 768 757 753 756 758 759 760 762 763 765 767 768 771 773 774 774 777 778 780 780 779 780 781 788 798 805 806 801 797 790 792 795 794 797 798 796 794 796 800 798 794 793 797 799 802 803 801 800 801 804 807 810 813 816
801 800 799 798 796 795 794 793 792 790 789 788 787 787 786 785 785 784 783 782 782 780 779 778 777 776 775 775 774 773 772 770 770 767 759 751 752 754 756 758 760 761 762 764 765 766 770 772 773 775 778 781 780 779 781 781 783 791 798 804 801 792 787 781 784 789 790 794 796 794 794 795 797 797 794 799 805 803 806 808 805 806 807 808 810 812 815 816
801 800 798 797 795 794 793 792 791 790 788 788 786 785 785 784 784 783 782 781 780 779 778 777 776 775 775 775 774 773 772 771 768 760 750 749 751 752 755 757 759 760 761 763 764 765 768 770 772 775 779 783 780 780 784 783 785 789 795 803 795 783 782 779 781 786 788 790 793 795 794 795 797 794 795 800 807 807 810 811 808 811 811 810 811 812 815 817
800 799 798 796 795 793 792 791 790 788 787 787 785 785 784 783 783 782 781 780 779 778 777 776 775 775 775 774 774 773 772 772 763 751 747 748 749 751 754 756 757 760 761 762 764 766 768 769 772 774 780 785 782 781 786 785 785 787 791 797 787 778 784 782 781 785 787 787 790 793 795 799 797 794 797 800 808 813 810 807 806 807 808 810 811 812 815 817
799 798 797 795 794 792 791 790 788 787 786 785 784 784 783 782 782 781 780 779 778 777 776 775 774 774 774 774 774 773 773 772 757 746 748 747 747 749 752 755 757 759 761 763 765 766 769 770 772 776 781 786 784 784 786 780 781 787 786 785 781 779 786 784 780 784 786 787 790 794 797 799 797 796 800 800 808 811 805 802 802 802 804 807 809 811 814 817
799 797 796 795 793 792 790 789 787 786 785 784 783 782 782 781 780 780 779 778 777 776 775 774 774 773 773 773 774 773 774 770 753 746 748 746 747 748 751 755 756 759 760 763 764 766 769 770 775 780 782 785 786 785 782 777 778 788 784 778 778 778 783 783 781 784 784 788 794 796 796 796 799 803 802 802 806 803 798 799 800 801 803 806 809 812 815 817
798 797 796 795 793 792 789 788 786 784 784 782 782 781 781 780 779 779 777 777 775 774 774 773 773 773 773 773 773 773 773 764 749 747 748 746 747 747 751 754 756 759 759 762 763 766 769 772 777 780 783 786 785 782 778 776 777 786 786 778 776 777 780 781 780 784 785 789 792 792 796 798 803 806 804 805 805 800 797 799 801 803 805 808 811 813 815 817
797 796 795 794 792 791 789 787 785 784 782 781 781 780 780 779 778 778 776 775 774 773 773 772 772 772 773 773 772 772 771 759 747 748 747 747 748 748 752 754 756 758 757 761 762 765 768 773 777 777 785 785 780 780 776 778 782 784 784 777 776 778 780 779 780 784 786 789 791 793 799 803 803 803 806 808 805 801 799 801 803 805 807 810 813 814 816 818
796 795 793 792 791 789 788 786 784 783 781 780 779 779 778 778 777 776 775 774 773 773 772 771 772 772 773 773 773 771 763 751 747 748 748 748 748 749 752 752 755 757 758 761 761 765 768 772 775 774 782 781 777 778 773 781 787 780 779 776 777 781 780 780 782 784 786 789 792 797 804 806 802 802 809 809 803 801 801 803 806 807 811 812 814 815 817 819
795 793 792 791 789 788 786 784 783 782 780 779 779 778 777 777 776 775 774 773 772 772 771 771 772 772 774 772 773 770 754 747 748 748 748 749 748 749 751 752 754 755 757 760 761 764 765 768 770 768 775 777 775 775 772 778 778 771 774 775 777 781 780 781 783 785 787 792 794 799 806 806 800 803 812 809 802 802 804 808 809 810 813 814 814 816 817 820
794 792 791 790 788 787 785 783 782 781 780 779 778 777 776 776 775 774 773 772 771 771 770 771 771 772 774 773 773 766 750 747 749 748 749 749 749 749 750 751 752 754 756 759 761 762 763 765 765 768 776 776 773 772 770 769 767 768 772 779 782 783 784 783 784 787 790 798 797 797 806 807 803 806 810 807 803 803 806 811 811 813 815 814 815 817 818 820
793 791 790 789 787 785 784 783 781 780 779 778 778 776 776 775 774 774 773 772 771 770 770 770 772 772 773 774 770 759 749 748 749 750 751 750 751 750 749 751 751 753 754 757 760 760 764 765 765 772 775 773 776 776 770 762 764 768 770 786 793 787 791 788 784 785 790 801 797 794 811 816 810 810 808 805 805 805 808 812 813 814 815 815 816 817 819 820
792 791 789 788 786 784 783 782 780 779 778 778 777 776 775 774 774 773 772 771 770 770 770 770 772 772 774 770 758 751 749 749 750 750 751 751 752 751 751 752 752 753 754 756 759 760 764 765 767 772 770 774 779 773 765 760 764 772 774 786 797 798 800 792 785 784 790 802 794 793 818 827 815 809 806 804 805 807 811 813 814 815 816 816 817 818 819 820
792 790 789 787 785 784 782 781 780 779 778 777 777 776 775 774 774 773 772 771 770 770 770 771 772 773 774 764 750 749 750 749 749 748 749 751 751 752 752 752 753 754 756 757 760 762 764 765 767 770 769 773 773 768 768 768 769 778 784 789 797 807 805 792 788 789 793 802 795 796 819 826 816 810 806 804 805 807 812 813 813 815 816 817 817 818 820 819
791 790 788 787 785 783 782 780 779 778 777 777 776 775 774 774 773 772 772 771 770 771 770 772 772 772 773 763 749 748 749 748 748 746 747 749 750 751 750 752 754 754 757 759 761 763 764 766 769 774 772 767 769 776 779 779 778 781 793 804 802 804 804 795 790 790 794 799 794 799 818 823 816 811 806 804 806 807 811 813 812 815 815 817 817 818 820 820
791 789 788 786 784 783 781 780 778 777 776 775 775 774 773 773 773 772 772 771 771 771 771 773 772 773 773 761 748 747 748 747 746 745 746 747 749 750 749 752 753 755 758 759 761 763 764 766 768 772 772 770 775 782 783 789 793 786 793 808 806 803 808 803 794 788 790 796 797 800 815 822 815 810 807 806 808 808 811 813 813 814 814 815 817 817 819 820
790 789 787 785 784 782 781 779 778 776 775 775 774 773 772 771 771 772 772 771 772 771 772 773 773 774 768 753 748 749 747 746 746 745 745 745 748 749 750 753 754 755 758 759 761 762 764 768 770 771 773 775 777 779 790 805 806 796 794 802 802 801 808 808 799 791 788 796 802 802 810 816 812 809 810 808 808 811 813 814 813 814 814 814 815 816 817 819
790 788 786 785 783 782 780 778 777 775 774 774 772 771 771 771 772 772 772 772 773 773 774 773 773 776 766 751 751 751 746 745 745 745 745 745 747 749 750 752 753 755 759 762 763 764 768 769 771 777 777 777 777 779 794 802 799 798 798 801 804 801 805 806 800 792 790 798 804 806 811 813 811 810 812 810 809 811 812 812 813 813 814 813 814 816 816 818
789 788 786 784 783 781 780 778 776 774 773 773 772 771 770 771 771 772 772 773 774 772 771 770 770 771 764 754 749 747 744 744 744 744 744 744 747 750 750 751 753 756 764 768 768 767 769 773 776 782 782 779 778 780 786 787 785 790 791 796 803 804 803 800 794 787 787 800 806 808 812 814 813 812 812 811 809 811 813 811 812 814 814 813 814 815 815 817
789 787 785 784 782 781 779 777 776 774 772 772 772 771 771 773 774 773 772 772 769 765 763 762 763 763 759 752 747 746 745 743 743 742 743 744 746 750 751 752 755 760 765 770 771 766 767 778 782 781 780 776 775 777 778 779 781 784 787 792 796 800 801 794 792 787 784 800 810 806 810 812 811 811 811 811 811 813 816 814 813 814 814 814 813 814 814 815
788 786 785 784 782 780 779 777 776 774 772 772 771 771 773 774 776 774 770 766 760 758 759 756 757 758 753 748 746 747 748 747 744 741 743 743 744 752 756 755 762 767 767 768 769 765 768 781 780 773 774 772 772 775 776 779 781 783 788 793 796 799 798 792 791 790 784 799 811 807 810 813 809 810 811 811 813 813 813 814 814 813 813 813 813 813 813 814
787 786 784 783 781 780 778 776 775 773 772 771 770 772 771 770 771 769 768 767 758 754 756 754 754 755 748 746 745 746 753 754 749 743 741 743 746 754 758 759 767 770 766 768 771 773 777 780 774 769 770 771 772 774 776 780 780 784 787 791 798 798 797 796 792 789 787 799 812 810 813 816 810 809 811 812 812 811 810 811 812 812 813 813 813 813 812 813
787 784 783 782 780 779 777 775 773 772 772 771 770 770 769 767 766 765 767 771 763 753 753 753 754 754 749 746 743 744 753 755 754 747 739 743 749 753 757 762 767 768 769 771 775 782 784 776 767 765 768 771 773 774 777 780 780 784 787 789 796 794 797 805 800 792 790 796 807 810 815 818 813 811 811 811 811 811 810 811 811 811 811 811 811 811 812 812
786 783 782 780 779 778 776 774 772 772 771 770 769 768 767 766 765 765 766 771 769 757 751 750 749 751 749 745 742 746 751 749 751 747 739 744 751 752 755 761 766 770 771 771 773 779 779 768 762 764 767 770 774 775 777 783 784 784 784 785 791 791 791 798 798 794 795 800 801 808 823 825 816 817 815 811 812 812 812 813 813 812 809 809 809 809 810 809
785 783 781 779 778 777 775 773 771 771 771 769 768 767 766 766 764 764 766 775 776 762 752 750 748 747 744 741 742 744 747 747 745 742 738 741 748 753 757 757 763 772 772 771 774 777 773 764 762 766 770 771 775 777 777 781 786 786 781 777 781 786 787 791 794 797 810 819 805 805 833 836 817 817 819 814 814 814 814 815 815 813 810 809 810 809 809 808
784 782 779 778 777 775 774 772 770 771 770 767 767 766 766 766 765 763 769 783 782 766 757 755 753 749 743 743 742 741 752 753 740 737 738 740 742 748 759 760 761 769 770 769 772 773 768 762 762 768 771 773 777 778 775 776 787 791 777 768 774 781 786 791 793 801 816 822 804 798 824 837 825 819 818 816 817 814 814 815 814 812 809 809 809 809 809 808
784 781 779 778 775 774 774 772 772 772 770 768 766 765 765 764 764 762 773 794 790 769 762 759 754 750 745 744 741 746 764 757 741 739 738 740 741 743 759 766 764 766 762 767 778 773 764 763 766 769 771 776 780 779 773 771 785 788 769 765 775 779 785 789 790 799 804 805 805 801 809 828 831 821 813 814 819 817 816 815 812 810 808 807 807 807 807 806
782 780 778 776 775 774 773 772 772 770 769 767 764 764 763 761 763 764 782 805 792 766 761 757 750 746 744 743 742 749 757 751 751 750 736 738 744 745 760 765 764 767 759 769 785 773 761 765 768 769 774 778 777 773 769 769 779 776 762 765 771 773 780 783 788 797 795 803 821 815 807 822 832 821 811 814 819 818 816 813 809 808 806 805 805 805 805 804
781 779 776 775 774 773 772 772 771 768 767 765 763 763 761 760 762 768 789 804 784 762 759 755 749 748 746 747 748 749 749 749 755 750 737 742 745 746 759 760 759 766 761 766 777 769 760 760 760 764 772 773 769 766 764 768 773 765 760 765 768 771 777 782 793 797 796 811 825 816 808 820 830 824 817 818 818 813 809 807 805 803 803 802 802 803 803 802
779 777 775 774 772 771 771 770 767 766 765 763 764 761 758 762 767 783 804 800 780 766 758 754 754 752 751 754 755 752 752 752 750 746 744 748 746 746 752 752 755 763 764 765 768 765 758 753 753 758 761 760 759 761 760 762 763 758 763 772 776 781 783 792 803 801 810 822 815 805 804 812 824 824 816 810 801 796 798 802 802 800 800 799 798 799 800 801
776 775 774 772 771 771 771 768 765 765 764 763 763 758 760 768 776 799 809 789 776 771 760 758 758 753 754 759 759 755 755 753 748 750 753 753 754 756 757 759 762 768 772 771 768 765 760 758 756 750 747 749 754 759 758 757 757 760 768 777 788 796 797 812 822 817 829 830 805 795 800 809 820 814 805 797 786 784 790 794 797 797 798 797 796 796 797 798
774 773 772 770 769 769 768 767 764 764 764 762 761 759 766 779 790 804 798 779 780 777 765 763 760 755 756 758 759 756 755 755 750 752 757 759 762 763 764 768 769 777 785 780 773 767 760 757 753 746 742 743 754 764 763 761 762 766 773 782 800 816 821 836 844 835 834 822 797 792 800 811 812 795 789 790 784 783 783 784 789 793 795 795 794 794 795 797
771 770 769 768 767 766 765 765 764 765 763 761 762 762 771 790 801 800 790 783 783 773 763 763 761 758 758 760 763 758 755 756 752 754 758 759 765 766 765 765 764 774 783 780 777 774 766 758 750 749 746 739 749 763 767 768 768 769 775 785 802 820 835 852 856 846 832 811 793 791 800 811 803 786 784 785 780 779 778 779 784 788 791 793 792 794 796 798
769 767 767 766 765 764 764 764 764 765 763 761 764 768 780 799 801 792 788 784 776 766 763 765 763 761 763 767 767 760 760 760 754 759 763 763 771 774 770 767 764 766 771 775 777 776 779 773 755 750 749 741 743 751 755 759 764 765 765 774 789 801 819 841 847 841 828 811 799 797 805 813 802 789 784 778 774 774 775 777 780 784 788 790 793 797 799 802
767 765 765 764 764 763 763 764 764 765 765 764 769 778 792 804 798 789 787 779 771 768 766 765 766 770 771 770 765 758 761 765 761 766 773 772 777 779 775 771 766 764 770 778 777 773 782 776 751 742 741 738 742 741 741 750 762 765 760 769 781 780 787 808 816 812 808 811 813 808 808 807 795 785 778 773 774 774 775 778 779 784 788 791 796 800 802 807
765 764 764 763 763 763 763 764 764 765 765 768 780 790 794 794 788 784 779 771 771 771 768 769 772 778 780 776 771 764 760 763 766 772 778 778 777 776 774 770 765 764 769 775 774 773 781 771 747 741 739 734 738 736 735 745 758 765 765 768 768 760 765 787 800 798 798 814 820 813 811 805 794 789 781 776 780 780 780 782 783 786 789 793 799 803 807 812
764 763 763 762 762 763 763 764 764 765 767 774 788 793 788 782 777 775 770 766 770 769 771 781 782 783 787 784 780 773 765 766 769 774 781 781 778 775 773 769 763 763 765 768 768 768 776 772 750 744 745 736 731 733 733 735 743 758 766 760 756 759 762 773 796 809 813 824 824 815 816 815 808 803 792 785 788 788 787 787 788 790 792 797 803 805 809 811
764 764 763 761 762 762 762 764 765 765 770 780 791 790 783 778 772 769 767 765 768 769 775 787 785 782 787 788 784 776 770 773 775 777 782 783 780 775 772 770 763 761 761 762 765 764 770 774 757 744 749 742 730 737 745 740 735 744 752 748 753 772 775 773 791 810 819 832 833 822 818 817 814 809 801 798 797 794 792 791 792 795 797 801 804 804 806 807
765 766 765 762 761 761 762 764 765 768 776 787 793 788 781 776 769 766 766 765 768 772 778 784 781 780 783 784 784 777 773 777 779 781 784 785 784 774 770 771 766 762 760 758 765 765 765 775 766 746 745 745 739 745 755 754 744 740 744 748 752 764 771 772 780 793 809 829 835 829 824 817 812 807 803 804 801 796 796 797 797 799 799 801 803 803 804 804
767 769 768 762 760 762 762 763 767 775 782 788 790 785 778 774 769 764 763 764 767 771 776 780 779 781 782 780 781 778 776 779 779 781 784 784 783 776 769 770 767 764 761 758 762 764 762 771 772 754 745 749 752 753 754 754 752 749 753 759 759 759 763 769 777 784 797 817 828 832 830 819 808 804 801 801 800 797 797 799 801 801 799 800 800 801 802 802
770 774 770 762 761 762 762 767 774 779 784 786 785 781 776 772 769 766 763 762 765 767 770 774 776 780 782 781 781 779 778 781 780 780 782 781 782 780 771 768 768 765 764 762 763 765 765 770 775 768 758 756 756 751 747 747 747 749 755 760 762 762 765 776 788 790 790 801 813 820 822 815 806 800 798 798 799 797 796 798 801 802 800 801 801 801 801 802
773 777 770 763 764 763 765 775 780 780 782 782 780 777 772 770 770 770 767 764 766 767 767 771 774 777 780 780 781 779 779 785 785 781 782 780 779 778 772 766 766 764 764 768 768 765 766 771 775 772 764 760 755 749 748 747 743 744 751 756 759 761 764 774 786 790 792 797 801 806 812 811 803 796 795 797 796 797 798 798 800 803 801 800 801 801 801 801
776 776 766 762 764 763 770 782 783 780 781 777 774 773 770 771 773 772 771 769 770 770 770 772 774 776 778 778 779 781 782 788 788 783 782 781 776 774 771 766 765 764 765 770 770 763 766 775 778 773 765 758 751 746 744 743 745 752 756 756 758 759 760 766 771 778 791 799 799 806 817 814 801 794 795 796 796 798 800 799 800 803 802 801 801 801 802 802
778 776 768 764 762 763 774 785 783 781 780 775 775 774 771 772 774 774 775 775 774 774 775 776 775 776 777 776 778 782 784 787 789 785 784 784 778 772 769 767 766 767 768 770 768 765 771 781 783 781 778 772 766 763 759 754 756 763 765 760 759 759 759 765 769 774 788 799 796 802 819 818 802 796 798 798 799 802 803 802 802 803 804 803 802 802 803 804
777 777 772 766 763 765 774 778 777 779 780 778 779 778 775 775 776 776 777 777 776 775 778 779 777 776 776 776 779 783 783 784 787 787 785 785 779 772 769 770 769 769 768 766 763 764 773 782 784 787 794 797 796 791 784 776 770 769 767 763 761 761 760 764 771 777 788 798 795 798 814 817 805 801 803 802 803 805 806 805 804 804 805 806 805 805 806 806
779 780 778 772 768 768 772 773 774 776 777 779 782 781 781 781 778 774 775 778 778 776 779 781 777 776 779 780 784 787 786 784 786 788 789 788 782 776 772 771 770 769 767 764 762 765 774 782 786 790 796 798 797 790 782 778 778 776 772 766 763 763 762 764 771 775 782 795 800 799 805 811 809 806 806 805 805 807 808 807 808 808 808 808 808 808 808 808
781 785 786 783 779 776 775 774 774 775 775 778 783 784 786 786 782 778 776 779 780 778 781 784 782 782 786 787 789 792 791 788 788 790 792 791 785 779 774 772 772 771 767 765 765 767 777 789 791 790 791 790 787 782 776 775 779 780 776 770 766 764 763 764 769 772 777 789 800 799 798 804 807 804 804 806 807 808 809 809 809 810 810 810 811 811 811 812
784 786 786 786 786 785 782 778 776 775 775 776 780 784 787 788 787 787 783 780 780 780 784 789 790 790 790 788 791 796 796 794 795 795 794 792 789 783 778 774 772 772 771 770 769 771 784 796 796 791 790 786 782 779 775 775 778 779 777 774 771 769 766 766 772 776 774 774 783 792 798 800 801 800 802 804 805 807 808 808 808 810 811 812 813 814 815 816
785 787 786 785 788 787 784 781 778 777 777 778 781 785 788 790 790 789 785 783 785 785 787 794 797 794 791 788 791 798 800 799 801 800 795 794 792 790 788 784 778 775 774 775 774 776 786 797 799 795 790 785 784 782 778 778 779 779 780 778 775 774 772 772 778 781 777 775 780 789 798 800 798 798 800 801 802 804 806 807 809 811 813 814 815 817 818 818
788 790 790 789 789 786 782 780 778 778 779 781 785 786 787 789 790 787 785 787 791 791 789 794 798 795 793 791 792 798 799 797 800 799 795 795 794 792 793 791 785 781 779 780 780 778 784 797 801 797 792 790 788 784 781 784 783 782 782 780 778 778 777 778 782 782 783 790 791 792 800 804 799 795 796 799 802 804 807 810 812 813 814 815 817 819 819 820
789 790 791 792 790 785 783 783 780 781 782 783 786 787 787 789 788 787 787 788 790 791 790 792 795 793 793 793 793 796 795 793 794 793 791 792 792 790 790 789 787 786 784 786 786 783 787 797 800 799 799 798 795 792 790 786 782 782 785 786 787 786 782 780 781 780 783 792 797 799 803 804 797 793 796 801 803 806 809 811 812 814 814 815 818 820 820 821
789 788 789 791 790 787 787 787 784 785 786 784 785 785 787 788 786 786 791 790 788 788 789 790 791 791 794 796 795 792 790 789 789 787 787 787 786 786 787 786 785 786 787 788 790 791 793 795 799 803 803 802 802 798 790 787 792 797 794 791 794 792 785 781 782 781 781 785 792 795 793 793 793 793 798 803 806 808 810 810 811 813 814 816 818 819 820 821
Wind_Speed
13 13 13 13 14 14 14 14 14 14 14 14 14 14 13 13 13 12 12 12 12 13 13 13 13 12 10 9 9 11 13 14 14 10 10 14 15 15 9 8 14 16 16 15 15 12 7 6 7 8 6 4 2 1 4 4 2 1 1 2 3 2 2 3 6 4 4 7 9 7 5 7 8 3 1 2 6 8 8 7 6 9 11 13 18 25 27 26
14 13 13 14 14 14 14 14 14 15 15 15 14 14 14 13 13 13 13 12 12 12 13 13 13 12 10 8 8 10 14 15 14 13 18 16 9 11 13 13 16 18 17 16 18 15 9 6 7 7 4 2 2 2 4 3 2 2 1 1 3 3 2 2 8 8 5 8 10 7 5 5 7 5 2 4 9 8 10 8 9 13 13 16 21 24 25 24
13 13 14 14 14 14 14 15 15 15 15 15 15 15 14 13 13 13 13 13 12 12 12 13 13 11 9 8 8 10 12 11 8 11 14 13 13 13 15 18 19 19 18 17 19 18 11 8 10 8 3 2 2 3 4 2 2 3 1 1 4 3 1 4 10 10 6 9 12 8 6 6 4 1 1 8 11 9 10 9 11 14 15 16 18 21 24 22
13 13 14 14 14 15 15 15 15 15 15 15 15 15 14 14 13 13 13 13 12 12 12 12 12 11 8 7 7 9 9 5 4 6 3 4 10 15 18 22 22 19 17 16 15 15 9 7 10 7 3 2 2 3 4 3 2 2 3 3 3 2 2 6 10 11 7 8 11 9 9 7 3 1 2 11 12 7 8 10 12 17 18 18 17 20 22 20
13 14 14 14 14 15 15 15 15 15 14 14 15 14 14 14 13 13 12 12 13 13 13 12 11 9 6 5 5 7 5 1 3 3 2 4 4 16 23 23 21 16 16 15 11 11 8 4 6 4 2 2 2 3 4 5 3 2 4 3 3 2 4 7 10 13 9 6 9 10 9 6 3 3 3 8 9 6 7 10 14 16 18 19 18 20 20 19
14 14 14 14 15 15 15 16 15 15 14 14 14 14 14 13 13 12 12 13 13 13 12 11 11 8 4 3 3 3 1 1 5 2 3 4 2 16 26 23 19 15 16 16 10 8 7 3 4 3 3 2 3 4 4 6 5 2 3 2 2 1 5 8 11 12 9 9 9 9 6 5 6 5 3 3 3 4 6 10 14 15 18 21 20 19 17 16
14 15 15 15 15 15 15 16 15 14 14 14 14 13 12 12 12 12 13 13 13 12 11 10 10 5 2 1 0 1 2 5 9 4 4 2 1 17 27 23 19 16 17 16 9 7 6 5 4 3 2 2 4 6 4 6 7 5 4 2 3 4 7 9 11 11 9 10 9 7 7 6 7 6 3 3 4 3 9 12 13 16 19 20 17 15 15 15
15 15 16 16 15 16 16 16 16 14 14 14 13 12 12 12 12 13 13 12 11 11 10 8 7 3 1 1 1 2 1 8 9 6 5 2 7 19 25 20 19 17 18 17 11 7 6 6 5 3 2 4 4 4 3 5 5 7 5 1 5 6 7 10 11 10 9 8 8 10 9 6 5 5 3 4 6 4 9 14 13 15 16 16 14 14 14 14
15 15 15 16 16 16 16 16 16 15 14 13 12 11 12 12 12 13 12 11 10 9 9 7 4 1 2 0 0 2 4 6 6 5 5 7 12 20 25 20 20 18 16 16 13 10 7 6 6 4 3 4 5 5 3 5 3 7 6 1 8 9 8 11 11 11 8 6 9 12 11 8 3 4 4 3 3 2 9 14 13 15 14 13 13 13 13 12
16 15 15 15 16 16 16 16 15 15 14 13 12 11 11 11 12 12 10 10 9 8 8 5 2 1 1 1 2 1 5 8 3 6 6 9 16 23 25 22 22 21 16 13 13 11 6 6 6 4 2 3 5 5 4 6 3 6 6 3 9 10 7 9 10 9 9 7 10 13 12 8 2 2 2 1 1 2 11 15 13 14 14 13 12 12 14 14
18 17 16 15 16 17 18 17 16 15 14 12 11 9 10 10 10 10 9 9 9 7 5 3 2 3 2 1 3 3 6 7 2 3 4 9 18 23 23 23 25 25 18 10 13 16 10 6 4 2 2 2 4 4 3 5 2 7 10 7 7 9 5 5 9 9 8 8 11 12 10 6 1 1 3 5 2 4 14 16 13 14 12 12 13 11 12 13
21 20 19 18 18 18 19 18 16 15 13 11 10 9 9 9 9 8 8 8 7 4 3 2 4 6 2 2 4 8 1 6 8 5 3 8 16 19 20 22 24 26 22 12 12 19 16 7 0 1 2 2 5 4 2 2 2 10 13 8 6 7 3 1 5 9 7 9 13 12 8 4 1 1 3 6 2 4 15 16 13 13 11 11 12 10 10 12
22 22 22 22 20 20 20 18 16 15 13 11 10 10 9 8 7 8 8 7 5 3 1 3 7 6 2 1 8 10 5 5 10 11 9 8 12 16 20 22 22 25 24 16 10 14 17 10 2 2 2 3 4 4 3 4 3 10 9 8 6 4 1 3 2 6 7 10 11 7 5 3 3 3 5 7 5 7 14 15 13 11 10 10 10 10 9 12
22 23 23 23 23 22 21 19 17 16 14 13 11 11 10 7 6 7 7 5 4 1 2 7 8 5 2 5 10 9 8 11 13 13 12 12 12 11 16 20 19 22 22 15 6 6 14 12 5 3 3 3 5 5 5 3 3 8 7 4 3 2 3 4 2 4 7 8 7 1 2 4 5 6 6 8 9 12 14 14 14 11 10 10 9 10 9 11
21 22 22 23 22 22 22 20 19 17 15 14 13 11 10 7 5 5 6 5 4 3 6 9 7 3 1 8 11 8 7 8 11 14 12 14 14 8 14 20 18 20 19 15 8 3 8 9 5 3 3 4 4 3 4 3 2 4 6 1 2 2 4 3 3 5 6 6 4 1 3 3 4 7 6 8 10 12 13 13 14 12 12 11 10 10 9 10
21 21 22 22 22 22 21 21 20 18 17 15 14 12 10 8 4 2 4 4 4 6 8 6 3 2 1 5 7 7 5 5 8 9 11 15 17 11 14 18 13 15 15 12 11 6 4 3 2 3 3 3 3 2 2 4 1 2 3 3 4 3 4 2 3 6 4 6 3 1 4 3 3 7 6 8 11 11 11 12 12 12 13 13 10 10 10 9
21 21 22 22 22 22 21 21 20 19 18 17 15 13 10 6 2 1 4 6 6 8 7 2 0 1 3 8 7 5 3 5 8 5 10 16 19 15 11 10 6 8 9 7 7 7 3 1 2 2 2 3 2 4 4 3 5 4 1 3 3 4 5 3 3 6 5 7 5 2 5 3 5 10 8 9 12 11 11 12 11 9 10 12 10 10 10 10
21 21 22 23 23 22 21 21 20 19 19 18 17 14 7 0 4 3 4 6 6 5 3 1 0 1 3 6 5 5 8 12 14 9 9 15 19 18 12 8 3 6 4 2 3 4 3 1 1 1 2 3 3 4 4 4 6 5 2 3 2 2 5 4 3 7 9 8 7 6 6 4 7 11 9 9 11 11 11 12 11 6 7 11 11 10 11 10
21 21 22 23 23 22 22 20 20 20 19 18 17 11 4 5 4 2 3 5 3 1 2 3 2 1 3 6 8 12 16 16 15 10 9 13 15 16 12 6 4 7 5 1 2 3 3 1 1 3 4 5 5 5 5 2 5 5 3 4 6 4 4 4 1 6 12 8 6 7 6 7 9 11 11 10 11 11 10 10 9 5 4 9 11 10 10 11
20 21 21 22 22 22 22 20 19 19 19 17 13 6 3 3 2 1 1 3 4 5 5 5 5 2 6 8 8 10 14 11 7 6 8 12 14 10 6 3 3 4 4 4 3 2 4 3 4 5 6 6 5 6 6 2 3 3 3 4 8 7 6 4 2 5 11 7 3 5 7 10 12 11 11 11 10 10 9 10 9 6 4 7 10 11 11 10
21 21 20 21 21 22 22 21 19 18 17 14 11 4 2 0 1 3 2 3 8 9 9 9 7 7 10 10 10 6 7 5 4 5 8 10 12 8 3 2 3 2 3 4 3 1 4 5 7 7 7 7 5 6 6 3 1 1 4 4 6 6 4 3 5 6 10 5 2 5 8 10 12 11 10 10 12 12 12 13 10 8 5 6 8 11 12 8
21 21 21 21 21 21 22 22 20 15 11 12 10 2 3 3 3 4 2 3 8 7 10 9 5 8 11 14 17 7 2 2 7 7 6 7 9 7 2 3 4 3 2 2 1 0 2 5 7 7 5 4 3 4 6 3 3 2 3 4 4 4 2 4 6 8 8 3 2 7 7 7 9 9 9 9 9 10 11 11 9 7 6 7 8 9 11 9
21 22 22 21 21 22 22 24 20 10 8 13 11 4 5 13 13 8 2 2 7 3 5 5 4 5 6 10 11 2 4 3 4 5 5 7 6 6 4 4 5 4 2 3 3 3 3 6 7 6 3 2 2 2 5 3 1 2 4 3 3 6 4 2 5 8 5 3 5 8 6 4 5 7 9 8 5 4 7 7 3 3 5 8 7 5 9 12
22 22 22 22 23 21 22 25 15 6 12 17 12 6 11 20 19 8 1 1 4 4 3 5 4 4 5 7 4 4 2 4 4 4 5 8 4 2 4 4 5 3 2 5 6 4 5 7 3 4 3 3 3 2 3 3 2 1 4 4 3 7 4 3 7 8 4 4 8 10 5 1 4 5 6 6 5 5 6 5 2 2 4 6 4 3 6 11
22 22 22 23 22 21 23 19 6 7 18 15 7 10 16 20 17 5 2 2 2 5 4 3 2 2 5 5 4 4 1 1 4 5 5 9 6 2 2 2 4 3 4 4 6 4 7 7 1 3 3 3 3 4 3 5 2 2 4 7 7 8 5 8 11 8 3 1 6 9 4 2 4 5 5 5 7 8 8 8 7 4 4 5 5 4 5 8
22 22 22 22 22 23 19 7 4 15 18 7 6 14 18 19 14 3 2 4 2 4 4 1 1 2 4 2 2 2 3 2 5 3 4 9 8 5 2 1 1 3 4 3 3 2 4 4 3 3 4 3 4 5 4 7 4 1 5 7 8 8 10 13 13 8 3 3 6 7 4 1 3 4 6 5 7 10 9 11 10 6 6 7 7 5 4 7
21 21 22 22 22 22 12 5 11 16 8 4 10 17 21 21 12 1 3 5 2 2 2 1 1 1 3 2 1 4 2 4 4 1 4 9 6 3 3 2 0 2 2 2 2 3 4 4 3 4 4 4 5 5 4 7 6 3 4 6 10 10 13 16 13 7 3 4 5 6 3 3 3 4 6 7 9 11 9 10 11 9 8 9 9 6 5 7
21 21 22 21 21 20 13 9 13 10 5 9 15 19 24 21 7 3 5 3 2 1 1 2 1 1 3 2 2 4 3 3 0 3 3 10 6 3 3 4 4 4 2 4 4 4 4 6 6 6 5 4 5 5 6 8 5 6 4 8 11 12 14 15 10 4 4 5 3 7 3 3 2 3 6 8 10 12 13 14 14 12 11 11 11 8 6 5
20 20 20 20 20 19 13 11 11 8 9 13 19 24 25 14 2 4 4 2 1 2 1 1 1 3 2 2 2 1 1 1 2 4 1 6 3 3 3 5 5 4 3 4 5 5 3 6 7 6 5 5 6 7 7 9 6 6 5 8 7 8 10 9 5 2 5 4 4 9 8 2 1 3 7 8 10 13 14 14 14 14 13 13 11 10 8 5
20 19 19 19 18 15 12 15 14 8 11 17 24 27 18 4 4 5 3 1 1 3 2 1 1 2 2 2 3 2 1 1 2 1 2 3 1 3 2 3 3 2 3 0 4 6 5 5 4 5 6 7 7 7 8 11 9 3 4 5 3 3 4 4 3 3 4 2 6 10 11 4 1 4 8 8 7 12 13 11 13 14 13 14 13 10 9 6
20 18 18 17 17 13 10 11 10 9 16 23 26 21 8 3 4 5 2 1 1 3 3 2 2 1 3 3 2 2 1 3 2 2 2 2 3 3 1 1 2 2 3 4 3 5 5 4 4 4 6 7 6 5 7 10 8 3 4 4 4 3 4 4 4 4 2 4 5 8 11 6 2 4 9 8 4 9 14 14 16 16 14 14 13 10 9 7
19 17 16 15 16 15 12 9 11 16 22 24 20 9 4 3 3 2 1 2 2 4 4 2 3 2 2 2 2 2 1 2 1 3 3 2 2 1 2 2 2 1 3 3 2 4 3 5 5 4 5 7 6 3 4 5 5 4 4 5 5 2 2 2 2 2 2 5 4 6 9 4 5 5 7 10 7 8 12 12 14 16 14 13 13 12 8 6
19 16 14 12 13 16 16 15 17 18 21 20 11 4 6 4 3 1 3 2 1 4 3 3 4 3 2 3 4 4 1 2 1 2 2 3 2 1 1 0 2 3 1 3 2 3 2 5 4 3 4 5 8 5 4 4 5 6 6 6 5 4 3 2 0 1 3 5 2 7 9 3 5 3 1 7 9 8 9 9 11 14 15 14 13 10 6 4
18 15 12 10 11 14 15 15 15 14 15 13 6 5 7 4 0 2 2 3 3 3 3 3 5 6 6 4 4 4 3 1 2 5 4 4 3 2 3 4 2 1 2 2 2 1 2 4 4 5 4 4 8 8 6 6 5 6 6 6 5 5 4 4 4 3 3 3 1 7 7 2 2 2 5 6 8 8 8 7 10 12 12 11 8 7 4 2
17 12 10 9 10 11 10 10 9 8 8 6 5 5 5 1 3 2 1 4 3 3 4 4 5 6 5 4 5 5 3 2 6 7 4 4 3 1 1 3 4 2 2 2 2 1 3 4 7 5 4 4 7 6 6 7 4 3 4 6 4 6 6 4 5 7 3 2 2 4 3 3 3 3 7 3 4 7 6 6 9 11 10 9 7 6 4 5
16 10 7 7 9 10 9 7 4 5 5 5 6 4 2 2 3 2 2 2 1 3 4 5 6 5 4 4 5 7 5 3 5 4 2 2 2 2 2 3 3 3 1 3 2 0 1 4 7 4 3 5 7 7 6 6 5 2 3 5 4 5 7 5 3 3 3 3 1 0 1 4 1 3 7 6 7 7 6 6 7 9 10 9 6 5 7 8
15 9 5 6 9 10 9 5 2 5 5 5 4 1 2 3 3 3 2 0 1 2 3 4 4 3 3 3 3 6 6 4 4 3 2 2 1 3 4 4 2 2 1 3 2 1 2 3 6 2 2 6 3 5 4 3 5 5 3 5 3 2 3 4 3 2 3 2 1 1 1 3 1 1 4 6 8 7 6 7 7 7 8 8 8 10 10 8
13 7 5 7 9 10 9 4 3 6 5 4 2 1 2 2 2 3 2 1 2 3 5 3 0 1 1 1 2 5 4 3 3 2 2 3 1 1 3 4 2 4 5 1 1 0 2 1 6 2 2 6 3 5 3 2 2 5 5 3 3 3 1 1 4 3 3 3 1 3 2 1 1 2 2 4 5 6 7 8 9 10 10 9 10 12 11 9
7 4 4 3 3 8 8 5 5 6 5 3 1 2 1 2 3 2 2 1 2 4 4 1 1 2 1 1 1 4 4 2 2 2 2 2 1 0 2 2 3 7 7 3 3 2 0 2 4 4 1 3 3 4 3 2 3 3 3 2 1 3 3 3 3 3 5 4 2 1 2 2 3 3 1 1 1 5 8 8 9 11 12 12 12 12 10 9
4 2 2 4 3 5 8 8 6 5 3 0 2 2 1 2 4 5 5 2 2 2 2 2 0 3 2 2 1 2 3 2 1 3 1 0 0 2 3 1 4 7 6 3 3 1 1 2 2 6 4 1 1 0 4 5 2 2 3 2 0 1 1 3 1 2 4 4 3 2 1 3 3 2 3 3 0 4 8 9 8 9 11 11 10 9 7 6
4 2 2 6 5 9 11 7 3 2 2 1 2 3 3 1 1 6 6 4 2 1 3 3 2 2 1 2 3 2 2 3 3 3 1 1 1 1 3 2 3 5 5 4 4 2 1 1 0 4 4 2 2 4 3 6 5 5 4 1 3 2 2 3 1 1 2 4 3 4 3 4 3 1 2 4 3 4 8 11 9 8 10 10 8 7 6 5
4 1 3 6 6 13 9 4 2 1 2 2 2 3 2 1 2 5 6 5 4 2 2 2 2 2 2 1 2 2 3 3 4 2 1 1 2 1 4 6 5 3 2 1 3 2 1 2 2 2 2 2 6 7 2 2 3 5 4 2 3 3 3 4 3 2 2 4 2 3 2 3 3 1 2 4 5 5 6 10 10 8 8 9 8 8 7 5
2 3 5 7 7 12 6 3 3 2 2 4 2 2 2 2 2 4 5 5 4 3 3 2 1 3 2 1 2 3 3 3 3 3 1 3 4 3 7 9 7 4 3 2 3 2 0 2 3 3 4 4 6 6 4 5 6 5 3 2 1 1 2 4 5 3 4 4 2 3 1 3 2 2 3 5 7 7 6 8 11 9 6 7 8 8 8 7
1 4 4 7 5 9 4 1 4 2 3 2 2 1 2 3 3 4 5 4 4 2 3 2 1 2 1 1 3 3 1 2 3 4 2 1 3 5 7 9 9 5 3 1 2 1 1 1 2 2 2 4 5 6 7 7 5 3 3 4 3 3 5 4 2 3 3 3 4 5 2 3 0 3 4 6 9 9 7 7 9 9 7 6 6 6 7 7
1 1 3 6 4 5 3 3 4 3 1 1 3 2 3 3 2 2 3 3 3 3 3 2 2 2 2 2 3 4 3 4 2 3 3 2 3 4 7 9 8 5 5 4 2 1 2 2 2 3 3 2 2 2 3 4 4 2 3 5 6 4 4 3 2 4 3 3 4 5 3 2 2 4 5 6 9 10 7 7 7 7 7 6 5 5 5 6
2 1 3 6 6 4 0 1 4 4 3 3 2 3 4 2 2 2 5 4 4 5 5 3 3 3 5 5 4 4 6 4 3 2 3 4 4 3 4 6 8 9 10 10 7 3 3 3 4 4 4 3 4 4 4 3 2 3 4 6 7 5 3 4 4 2 3 5 2 2 5 8 7 7 8 8 9 9 8 8 7 7 6 6 5 5 5 6
2 1 2 2 3 4 3 3 3 2 3 4 2 1 2 2 3 4 4 3 3 4 4 4 5 4 3 3 3 3 5 5 5 4 3 4 3 4 5 4 7 11 11 9 8 4 4 4 6 4 3 1 2 2 4 2 1 1 4 6 7 7 5 5 3 4 7 7 1 5 9 13 12 12 10 9 8 9 8 8 8 7 6 6 6 6 7 6
2 0 1 2 1 1 1 3 3 4 4 4 3 1 2 4 4 2 3 2 3 4 3 4 7 5 3 2 4 2 4 5 5 4 3 3 3 5 7 5 5 9 9 6 5 3 5 3 4 3 4 5 7 7 6 3 2 2 5 7 8 9 5 5 2 2 6 5 4 8 12 11 10 11 9 8 8 9 9 8 8 8 7 7 7 7 7 6
2 1 2 2 1 3 3 4 2 4 5 4 3 2 2 3 4 1 2 2 4 5 4 4 5 6 6 5 5 3 3 3 3 4 3 3 3 3 5 5 5 7 7 6 4 3 5 3 3 3 3 7 11 10 7 5 5 6 8 9 9 8 5 6 4 4 5 4 6 12 11 3 3 7 9 7 8 8 9 8 8 8 8 8 7 7 7 6
2 0 2 3 2 3 3 3 1 4 4 3 3 2 2 3 2 0 2 4 2 4 4 4 1 2 5 7 6 4 1 4 3 2 1 2 3 2 2 2 3 6 7 5 4 3 4 3 1 2 3 6 10 11 9 6 7 8 10 13 13 9 6 5 4 4 7 7 8 12 10 3 1 5 9 9 8 9 10 9 9 8 8 8 8 7 7 7
1 2 0 2 2 4 3 3 3 4 2 2 2 1 1 1 2 3 3 3 3 1 1 5 3 2 5 7 7 3 2 5 4 3 3 2 1 1 0 1 1 3 6 4 4 4 4 3 2 3 3 3 7 10 9 6 7 10 12 14 14 9 4 2 1 0 5 10 11 9 7 4 4 6 10 9 9 11 11 11 9 8 8 9 9 8 8 7
5 2 2 3 1 3 3 3 3 4 1 1 2 2 1 0 1 4 4 3 3 2 4 7 5 3 4 5 4 3 4 4 5 6 5 3 2 1 1 2 3 3 3 3 2 3 2 3 2 3 2 3 7 8 6 5 7 6 7 8 8 8 4 2 4 4 4 11 10 5 5 6 7 9 11 10 11 11 10 10 10 9 9 9 9 8 8 7
Wind_Direction
343 343 341 339 337 335 333 330 327 326 327 326 324 326 325 327 327 328 328 326 325 322 321 322 322 321 318 319 321 319 317 311 309 299 249 253 257 239 226 189 182 168 156 163 171 167 158 174 198 201 195 190 199 192 164 162 134 118 154 220 255 224 200 191 158 145 114 142 161 166 171 143 134 146 205 131 101 107 104 87 94 95 99 111 125 138 144 146
343 342 340 338 335 333 331 328 326 325 324 323 323 323 323 324 324 325 324 323 323 322 323 322 321 322 319 323 323 321 321 317 311 285 254 250 259 231 206 184 174 168 158 161 171 166 160 181 183 179 172 163 192 170 158 161 150 166 193 217 249 226 186 162 135 131 143 152 153 154 151 138 137 142 178 130 119 115 108 111 114 105 107 117 131 141 146 147
342 341 338 336 333 331 330 326 326 324 322 322 321 321 322 322 322 322 322 322 322 321 322 319 320 321 319 323 323 323 322 325 312 268 258 248 237 218 187 176 172 172 174 174 180 176 169 174 169 163 156 197 211 172 172 172 176 183 191 272 253 232 86 95 125 131 154 152 142 143 133 123 136 131 169 132 122 120 125 136 133 126 132 135 141 146 150 150
340 338 335 333 332 331 329 327 325 323 323 321 319 319 320 320 320 320 320 320 320 319 318 318 320 318 320 324 321 323 325 329 289 238 236 259 228 202 182 174 171 181 189 185 188 183 171 153 158 165 163 208 228 192 190 173 174 177 181 235 266 244 72 93 123 128 142 152 138 134 129 124 122 35 133 135 126 134 150 155 149 142 143 145 149 151 154 152
337 335 334 333 332 330 329 327 324 323 323 319 318 318 318 318 318 318 320 320 319 317 316 315 317 320 321 321 317 323 345 16 263 217 199 308 240 188 180 174 172 185 191 190 193 182 185 160 143 172 191 212 207 193 198 181 184 240 216 230 285 292 97 107 119 127 138 137 126 130 133 129 110 78 125 139 136 152 160 156 153 146 144 149 152 153 155 152
336 334 334 333 331 329 327 327 326 326 323 318 317 318 317 316 316 317 320 321 318 315 314 311 314 321 321 325 321 318 64 253 280 244 213 304 281 181 177 178 181 183 184 184 181 170 180 160 131 172 191 222 211 214 210 177 180 244 260 239 240 223 116 121 122 129 139 133 135 138 123 113 115 102 75 99 112 132 141 146 148 143 142 146 149 152 154 155
338 336 334 331 329 327 325 325 328 329 323 319 316 315 316 317 317 315 318 321 317 313 310 309 311 313 346 12 279 25 107 264 274 238 231 312 180 176 173 181 183 175 175 173 169 165 162 152 155 162 182 237 214 225 221 170 182 210 267 270 146 124 123 131 129 134 139 135 133 122 109 111 126 121 62 25 19 77 130 138 143 140 140 144 148 152 155 158
339 337 334 331 329 326 323 321 325 329 323 319 317 317 321 323 320 317 321 322 315 313 306 304 310 306 23 90 177 356 265 259 262 237 241 185 146 166 168 173 178 176 173 174 173 162 156 164 172 153 180 242 231 237 209 154 189 210 240 253 114 111 124 128 128 133 133 131 120 110 107 89 98 107 62 22 10 28 128 135 140 141 142 146 150 153 155 160
339 338 335 334 332 328 324 322 326 327 321 321 324 328 328 325 324 326 327 324 316 312 303 297 305 61 86 106 90 321 269 282 275 229 215 162 153 164 168 173 180 179 174 183 184 167 170 176 184 184 192 247 258 264 199 154 213 214 217 159 119 124 130 130 131 136 131 128 117 111 105 87 80 91 47 4 15 26 135 137 144 147 149 153 153 156 158 162
340 339 338 336 333 331 332 332 330 325 322 327 333 333 331 328 331 337 335 330 322 309 302 287 263 118 126 270 93 154 285 320 296 205 194 169 163 165 173 179 182 181 178 186 187 179 183 168 170 195 226 278 258 254 193 174 222 194 178 103 117 122 128 135 133 132 121 117 117 114 116 117 153 137 102 233 159 135 142 141 150 153 155 158 157 159 161 165
345 344 341 339 336 337 341 340 334 329 328 333 337 334 332 333 339 344 343 337 328 311 298 270 207 161 186 84 123 215 292 342 9 189 210 186 174 174 181 185 185 185 181 177 192 196 197 180 146 147 217 288 291 279 211 195 178 138 130 89 88 92 94 130 129 133 121 119 123 113 111 110 108 133 147 165 164 157 147 147 157 157 160 161 158 160 163 169
351 349 348 345 342 343 348 346 338 335 336 337 338 335 331 334 343 348 346 341 333 323 301 239 155 149 146 47 207 228 233 45 24 359 290 205 191 194 194 193 193 192 186 177 200 204 198 197 154 4 240 338 334 306 287 275 128 131 127 107 91 89 95 215 138 145 133 129 133 116 104 97 94 140 142 145 140 156 149 151 159 161 163 161 160 161 166 172
354 354 353 351 347 346 350 350 344 341 342 342 343 340 335 332 344 353 347 345 342 333 323 159 147 140 102 288 240 239 242 316 325 308 281 237 216 213 204 202 203 201 196 191 200 204 200 200 205 270 292 337 308 277 307 316 141 137 126 118 120 101 154 263 205 140 116 135 148 129 121 153 181 165 152 149 147 154 154 156 161 164 166 163 165 165 169 175
354 354 354 352 350 348 349 350 349 348 347 350 351 344 335 326 336 353 349 352 8 12 114 127 135 130 116 261 269 275 277 295 298 273 255 232 226 229 215 209 209 207 205 206 207 190 195 200 220 267 276 245 255 297 325 341 119 126 110 106 141 150 179 208 222 137 115 143 166 111 132 175 179 164 161 162 158 158 159 161 163 167 170 168 170 169 173 179
353 352 352 353 351 350 348 348 349 351 352 354 354 346 334 318 314 343 359 17 38 102 129 126 137 134 14 277 278 300 290 288 282 255 236 219 215 226 217 210 212 213 214 219 223 173 176 188 209 246 267 240 225 298 324 17 62 128 123 135 222 154 159 194 229 179 138 142 164 31 127 160 177 171 167 168 167 163 164 165 165 170 172 172 174 173 176 181
350 350 351 351 352 351 348 346 348 350 352 350 349 343 328 310 288 325 22 50 74 119 126 126 159 150 38 281 293 324 284 259 280 248 220 214 210 215 208 201 211 217 218 227 229 225 197 185 209 205 242 258 188 153 38 61 66 228 130 157 193 147 142 185 224 216 171 133 158 360 130 141 176 173 168 172 176 167 166 168 168 174 174 172 176 175 176 178
348 349 349 350 352 353 348 345 346 348 348 348 347 341 326 303 227 151 68 74 98 131 133 124 79 99 265 279 306 336 291 282 311 270 215 214 213 212 189 183 211 206 207 229 228 223 202 193 228 215 226 231 162 114 95 129 186 226 117 135 175 147 155 168 178 205 184 153 169 118 133 166 159 161 171 182 180 170 168 172 172 177 176 173 175 176 177 177
346 347 348 349 352 353 350 344 343 345 346 348 350 348 349 90 176 153 97 94 102 135 152 263 303 52 268 278 301 300 298 303 311 299 230 214 209 206 180 166 174 142 149 220 207 186 163 211 202 193 244 203 157 125 150 182 171 176 157 118 114 143 184 190 163 178 172 167 172 137 140 175 151 153 168 181 181 176 175 173 171 176 179 177 176 178 179 179
344 346 347 347 350 353 350 342 339 340 341 347 352 358 52 107 143 148 112 108 103 180 286 248 195 360 277 276 290 291 300 302 301 292 232 200 197 204 188 169 134 118 116 98 183 181 164 217 185 171 218 208 183 160 171 161 117 132 140 138 148 169 212 202 144 167 162 159 170 156 153 165 161 160 165 177 183 178 176 173 170 175 188 184 180 180 181 181
342 344 344 345 347 349 348 342 336 333 335 344 353 9 82 70 44 330 148 161 207 230 258 231 189 255 282 277 284 297 312 308 284 256 215 188 181 190 192 177 98 100 127 143 192 202 149 184 226 202 203 209 191 164 167 136 85 101 106 149 169 177 207 190 128 160 158 148 164 160 153 163 171 168 163 171 175 172 177 179 180 185 193 191 184 182 182 183
341 341 341 343 343 344 345 340 335 330 331 340 353 23 158 172 22 320 303 239 239 220 235 240 201 228 258 266 276 304 347 325 278 252 227 191 165 160 190 182 119 138 183 164 198 213 137 191 230 217 201 203 187 158 160 143 120 113 108 147 179 181 199 149 125 157 156 137 125 141 146 167 175 167 160 167 172 176 183 184 189 192 188 193 192 186 181 178
341 339 338 340 340 341 340 336 334 330 327 338 349 3 227 285 291 281 326 300 274 217 219 245 226 242 260 267 271 273 76 299 297 287 232 178 153 162 175 123 136 195 205 131 176 262 174 228 237 224 205 200 187 140 132 134 177 191 120 142 176 172 116 91 134 159 153 128 135 144 147 167 171 160 160 170 177 182 184 183 188 190 186 193 196 189 179 172
341 338 336 337 336 337 337 334 332 326 330 335 326 285 317 344 330 297 296 310 292 246 207 229 218 241 271 276 266 216 121 206 267 281 207 156 161 178 145 120 152 185 166 143 167 165 198 246 235 214 196 187 241 146 118 118 198 165 144 146 177 178 150 104 162 161 140 108 136 139 135 154 165 161 163 166 163 164 173 173 169 183 193 193 193 196 183 175
341 337 335 333 332 335 336 331 327 330 336 327 312 311 345 350 342 321 274 290 298 294 244 220 210 206 244 277 256 139 143 200 202 247 192 146 144 167 148 145 147 167 200 166 162 174 233 259 227 169 185 179 232 253 130 151 258 217 177 179 179 181 160 112 157 147 87 74 127 125 106 180 189 174 166 153 152 159 161 161 173 216 201 184 187 236 207 183
341 336 332 331 330 331 334 331 324 342 334 320 314 346 349 346 344 342 104 47 320 299 289 263 266 232 244 267 229 189 210 213 206 217 174 150 144 132 173 163 129 188 224 150 146 195 250 263 143 136 220 185 217 253 173 164 210 326 224 204 183 174 137 119 145 142 94 128 157 136 122 242 222 191 187 164 166 173 168 179 200 222 206 187 193 233 231 196
340 334 330 330 326 328 335 334 325 335 331 317 335 341 342 347 346 332 92 46 337 298 315 328 7 295 286 274 192 146 60 312 254 213 141 158 161 134 147 242 103 193 203 148 155 214 248 244 163 177 220 192 219 249 194 156 138 324 246 203 170 155 138 141 152 154 149 180 181 162 130 192 233 217 203 189 182 181 177 188 200 210 203 195 197 213 228 207
338 333 329 327 325 330 334 307 316 327 322 304 327 329 334 342 342 300 67 40 354 295 287 282 41 354 303 275 112 98 116 275 287 333 142 165 173 98 124 202 189 194 188 142 212 233 216 227 209 194 198 191 217 242 198 146 135 237 237 163 151 149 151 159 162 160 140 107 161 185 124 117 220 224 187 187 197 193 191 198 202 205 204 198 198 203 214 208
335 331 326 322 324 327 321 303 311 316 298 308 321 327 331 334 333 118 81 56 345 308 247 273 296 295 293 301 67 111 206 249 9 292 205 163 168 73 122 198 174 194 199 143 220 258 202 214 221 200 194 204 214 225 191 149 164 243 206 152 163 165 164 167 162 149 116 96 160 207 163 112 250 232 166 181 200 199 199 204 202 198 201 200 197 197 200 196
332 329 322 318 318 319 317 304 298 300 310 321 326 327 328 329 16 88 76 90 347 297 248 341 322 284 307 339 2 95 261 360 152 265 288 142 167 85 150 203 171 205 250 157 208 259 223 211 205 184 195 214 216 220 187 164 200 240 177 168 178 166 159 153 143 108 108 118 204 207 187 150 253 202 165 179 207 206 198 200 202 196 196 200 199 194 191 182
330 326 319 315 313 313 315 304 295 307 324 325 326 325 327 351 84 60 43 37 340 276 252 38 299 272 81 63 326 307 256 249 215 270 42 104 8 33 155 197 130 178 281 278 230 249 254 245 213 185 200 206 208 208 186 183 200 183 121 149 119 79 93 89 40 34 94 193 234 202 189 174 194 199 182 187 206 198 190 191 197 196 194 198 200 193 187 184
327 325 317 311 305 301 302 298 297 317 322 321 324 328 341 55 71 76 68 16 337 298 320 335 276 280 117 140 274 286 200 256 244 134 123 88 35 19 33 356 39 46 342 337 290 269 268 256 233 220 210 194 190 204 198 195 196 151 103 124 106 51 25 42 7 16 102 235 249 196 185 181 226 224 201 210 211 179 187 192 191 192 193 197 200 194 187 183
326 324 315 303 293 282 270 271 291 306 313 320 329 346 65 58 28 77 275 341 358 310 312 296 285 282 190 170 291 261 188 272 270 131 145 115 103 159 154 192 194 77 330 287 287 312 281 232 228 236 227 188 165 199 222 188 172 156 134 130 125 103 24 50 3 358 206 247 258 169 163 183 247 240 203 209 210 184 193 195 188 187 190 195 200 196 189 178
327 323 312 295 283 276 272 281 295 305 317 328 340 39 86 69 39 336 279 313 311 288 284 282 310 335 95 62 344 307 244 250 248 86 75 91 110 181 50 341 162 130 231 225 265 338 312 272 259 221 245 199 161 177 212 179 167 164 153 153 152 136 132 146 109 325 251 258 263 151 156 210 258 259 258 218 207 186 188 191 181 183 188 195 200 195 180 175
330 324 311 294 284 280 279 288 299 314 331 345 16 64 61 66 293 312 310 257 256 291 301 305 340 23 55 50 339 349 30 342 48 58 22 35 58 19 10 355 6 115 194 211 252 174 155 258 246 197 225 200 173 187 183 155 159 174 160 152 158 154 149 153 168 206 237 257 143 141 159 225 224 241 304 265 206 171 169 179 168 176 187 185 186 182 166 160
334 325 310 303 293 281 281 293 311 338 353 16 52 59 65 98 256 296 283 253 273 321 315 337 31 40 29 1 344 9 40 12 47 62 21 20 66 30 323 318 344 28 138 177 245 196 149 239 250 239 240 183 177 190 156 124 139 197 144 123 158 181 158 145 184 195 178 111 125 147 182 249 213 265 322 333 149 136 137 147 150 162 171 164 167 171 137 79
339 334 319 310 295 277 280 300 341 26 34 55 54 46 98 201 223 195 225 243 315 323 328 7 35 40 11 355 347 351 8 32 51 65 17 28 73 28 340 271 327 25 129 179 224 212 116 266 277 292 280 208 184 175 154 152 172 179 132 153 201 182 146 132 181 189 102 114 194 142 282 301 306 330 351 46 87 91 104 119 133 147 150 147 138 114 97 85
345 351 330 298 285 270 271 287 18 57 57 75 76 58 230 223 193 187 241 358 58 8 55 44 20 38 14 351 335 337 351 17 34 48 32 26 19 2 342 279 289 42 255 217 206 180 139 271 291 293 249 258 210 140 135 154 146 131 163 198 192 108 113 112 127 98 74 127 255 6 249 298 13 343 342 48 82 83 94 108 112 115 121 120 108 105 110 119
345 354 319 283 266 256 259 254 106 78 69 71 52 273 238 248 216 204 241 63 75 51 72 85 10 101 100 29 319 326 354 20 17 48 62 18 341 331 346 302 313 8 325 311 111 239 115 296 291 263 206 285 341 90 108 358 73 130 162 184 130 128 203 114 138 158 119 136 256 346 329 275 174 214 328 35 85 94 93 100 104 104 105 107 114 125 133 140
350 12 332 309 251 246 236 184 114 70 61 58 336 262 241 277 279 283 316 22 92 73 68 163 185 82 90 107 270 319 16 41 18 69 82 31 14 270 21 310 308 343 338 16 89 275 67 101 276 285 283 289 356 72 157 268 348 63 77 29 73 140 167 160 152 157 135 144 185 4 350 268 225 233 168 107 117 101 99 95 96 105 110 114 124 135 147 159
17 38 310 12 25 214 181 138 91 58 66 150 214 229 277 268 286 330 357 39 108 100 99 206 144 55 29 10 338 329 26 25 24 74 80 359 181 305 348 336 309 332 338 16 67 287 354 90 263 301 338 352 176 190 190 181 150 87 51 10 308 65 120 151 105 94 127 142 161 144 253 259 254 245 165 158 136 91 104 101 94 101 109 118 128 136 148 160
38 50 283 16 57 157 140 106 61 77 140 254 219 233 291 263 311 344 358 40 76 137 140 153 131 83 76 12 2 339 27 21 17 65 77 12 88 292 343 16 315 321 352 15 22 6 357 66 270 310 354 40 247 270 218 179 166 142 119 140 185 162 128 128 101 336 110 124 154 155 185 250 271 276 173 144 113 98 107 107 104 103 109 116 124 129 137 146
56 113 286 15 126 160 120 76 258 124 149 237 223 232 291 47 45 352 351 19 44 55 64 104 129 85 85 74 9 3 60 39 357 39 79 357 76 90 332 349 331 313 51 30 299 287 199 90 45 296 282 270 271 282 279 164 127 107 101 104 142 134 114 128 168 220 88 82 88 103 132 255 288 351 146 129 107 96 98 105 106 103 107 112 113 113 116 114
84 226 311 19 146 163 92 23 270 356 246 238 246 261 328 48 34 2 6 14 23 30 29 31 106 76 60 71 45 36 62 54 4 13 331 328 24 12 335 349 358 3 58 42 304 289 171 67 28 312 292 311 302 302 347 40 62 62 25 11 68 78 103 139 168 162 123 127 122 78 62 257 279 69 115 120 106 97 96 104 108 107 101 98 101 100 96 91
167 235 305 17 119 155 113 267 246 299 271 262 38 341 358 47 47 29 27 8 351 11 35 4 23 88 63 48 64 34 25 88 34 5 18 8 356 353 355 7 15 18 20 341 268 309 2 33 44 28 358 356 351 351 358 8 31 44 326 326 340 33 88 118 117 76 105 180 158 126 167 248 165 96 113 123 117 109 105 106 107 110 109 100 93 88 87 89
23 248 279 343 36 131 163 200 173 169 239 48 51 12 22 37 38 52 58 30 2 43 63 340 332 85 31 25 60 15 16 84 68 355 28 22 317 330 2 7 15 22 347 316 297 32 48 45 57 90 106 104 60 22 347 326 339 338 314 334 356 30 85 136 115 80 117 184 143 133 165 182 122 126 144 144 129 119 114 108 101 103 106 103 95 88 89 92
48 41 310 329 7 49 203 200 125 137 146 108 58 9 41 35 309 20 65 52 12 47 66 353 343 51 31 29 59 19 11 40 51 37 28 354 316 306 337 355 18 14 348 347 7 48 112 50 39 89 113 150 186 223 254 263 344 332 320 344 358 4 38 101 108 121 161 144 134 218 166 148 158 171 168 156 137 128 126 119 110 106 101 94 91 85 80 84
71 50 6 342 345 5 347 344 39 85 132 121 104 3 44 35 340 3 37 42 4 39 61 12 10 47 31 31 71 26 359 16 30 31 360 325 292 291 315 354 24 7 350 353 8 41 102 40 12 49 66 26 202 267 298 313 70 354 353 6 358 350 19 84 128 184 153 128 180 237 168 157 174 182 170 158 144 133 132 130 123 118 112 102 96 91 85 83
53 207 77 101 201 310 338 324 359 54 70 89 95 77 52 50 50 19 345 5 16 29 72 30 12 32 41 63 98 41 360 27 26 358 332 333 329 337 344 351 11 8 2 359 4 54 100 50 342 353 12 10 23 20 7 30 83 17 26 36 16 357 22 91 119 156 141 141 190 184 168 167 173 168 157 150 144 136 132 131 125 119 115 108 101 96 92 88
36 33 315 34 135 217 235 278 312 64 59 60 67 62 94 83 68 4 309 28 14 360 74 77 350 2 34 52 94 75 16 58 37 336 327 347 340 2 8 342 334 2 12 8 3 61 105 77 348 335 352 9 19 21 18 32 46 24 14 28 28 13 35 80 79 73 80 92 144 146 141 132 145 148 142 136 138 132 125 123 122 121 119 113 106 100 95 92
58 109 315 6 350 275 271 305 47 83 40 35 64 58 102 104 93 53 21 70 54 338 39 95 315 6 54 56 77 82 140 147 127 328 337 22 353 12 35 294 289 344 6 10 351 11 85 100 52 6 5 1 8 13 7 9 39 37 14 11 13 11 29 61 81 85 74 78 107 119 117 101 258 149 133 131 135 129 126 127 124 124 123 116 110 104 99 97
336 230 90 70 341 328 340 341 44 91 48 36 106 105 66 95 140 118 57 56 122 135 112 144 157 65 52 48 54 38 250 175 175 251 234 207 270 288 36 222 218 353 2 4 348 359 53 99 85 47 41 333 347 1 348 336 21 31 15 5 358 345 347 34 346 165 122 121 116 112 125 164 193 154 132 134 139 134 133 134 128 127 127 121 119 118 113 109
357 305 44 95 280 342 11 340 15 81 83 244 152 121 87 279 325 98 92 20 26 82 147 156 136 73 38 29 21 313 273 247 242 243 219 209 222 168 119 73 79 60 13 10 9 356 32 91 100 76 94 287 328 352 347 360 32 15 349 353 338 312 312 1 357 6 114 135 135 154 172 158 156 148 138 141 146 143 143 141 137 137 132 125 125 123 118 115